Regional Weather Roundup
Issued by NWS

Home | Current Version | Previous Version | Text Only | Print | Product List | Glossary On
Versions: 1 2 3 4 5 6 7 8 9 10 11 12 13 14 15 16 17 18 19 20 21 22 23 24 25 26 27 28 29 30 31 32 33 34 35 36 37 38 39 40 41 42 43 44 45 46 47 48 49 50
000
ASUS43 KTOP 260708
RWRKS

WEATHER ROUNDUP FOR KANSAS
NATIONAL WEATHER SERVICE GOODLAND KS
200 AM CDT SAT JUL 26 2014

NOTE:  "FAIR" INDICATES FEW OR NO CLOUDS BELOW 12,000 FEET WITH NO
SIGNIFICANT WEATHER AND/OR OBSTRUCTIONS TO VISIBILITY.

KSZ001>006-013>018-027>032-041>047-260800-
NORTHWEST KANSAS

CITY           SKY/WX    TMP DP  RH WIND       PRES   REMARKS
GOODLAND       CLOUDY    69  63  81 CALM      29.96F
HAYS           MOCLDY    82  64  54 S9        29.84R
HILL CITY      CLOUDY    82  68  62 W25G44    29.94R
RUSSELL        PTCLDY    83  60  45 SW16      29.80S
$$

KSZ061>065-074>080-084>089-260800-
SOUTHWEST KANSAS

CITY           SKY/WX    TMP DP  RH WIND       PRES   REMARKS
DODGE CITY     CLOUDY    86  54  33 SW16G26   29.90S
ELKHART          N/A     82  54  38 S9          N/A
GARDEN CITY    CLOUDY    78  64  61 N18       29.93R
GREAT BEND     PTCLDY    75  61  60 S8        29.84R
LIBERAL        MOCLDY    81  55  41 SW7       29.97F
PRATT          CLEAR     77  55  47 SW10      29.88R
$$

KSZ066>073-081>083-090>101-260800-
SOUTHEAST KANSAS

CITY           SKY/WX    TMP DP  RH WIND       PRES   REMARKS
CHANUTE        CLEAR     79  72  79 S15       29.87S
COFFEYVILLE    CLEAR     79  73  82 S15       29.87F
HUTCHINSON     CLEAR     82  61  48 S10       29.84S
MEDICINE LODGE   N/A     80  59  48 S7        29.86S
NEWTON         PTCLDY    84  61  45 S20G30    29.88S
PARSONS        CLEAR     80  72  76 S10G18    29.89S
WICHITA INTL   PTCLDY    81  67  62 S16       29.85F
WICHITA JABRA  PTCLDY    83  67  58 S21G31    29.85F
WICHITA MCCONL PTCLDY    81  69  65 S17       29.86F
WINFIELD       CLEAR     81  69  67 S13       29.88S
$$

KSZ007>012-019>026-033>040-048>060-102>105-260800-
NORTHEAST KANSAS

CITY           SKY/WX    TMP DP  RH WIND       PRES   REMARKS
CONCORDIA      CLEAR     80  63  55 S10       29.78F
EMPORIA        CLEAR     80  70  71 S16       29.83S
LAWRENCE       CLEAR     84  72  67 S6        29.81S
MANHATTAN      CLEAR     84  70  62 SW10      29.78S
MARYSVILLE     CLEAR     79  68  69 S3        29.79S
OLATHE IND     CLEAR     81  72  74 S16       29.83F
OLATHE EXE     CLEAR     80  72  76 SW10      29.82F
SALINA         PTCLDY    84  60  44 S14       29.79F
TOPEKA BILLARD CLEAR     85  74  69 SW8G18    29.79F
TOPEKA FORBES  CLEAR     83  73  72 S15       29.80F
$$



USA.gov is the U.S. government's official web portal to all federal, state and local government web resources and services.